[[{"header":{"parameterUnit":"m.s-1","parameterCategory":1,"la1":30.2992,"la2":30.254,"lo1":-89.0895,"lo2":-89.0443,"dy":0.0025,"dx":0.0025,"nx":19,"ny":19,"refTime":"2026-03-07T09:00:00:Z","depth":0,"parameterNumber":2,"parameterNumberName":"U-component_of_WINDS"},"data":[0,0,0,-4.5121,-4.5125,-4.5342,-4.5343,-4.5613,-4.5615,0,0,0,0,0,0,0,0,0,0,0,-4.505,-4.5052,-4.5121,-4.5126,-4.5342,-4.5343,-4.5612,-4.5615,0,0,0,0,0,0,0,0,0,0,0,-4.505,-4.5052,-4.5054,-4.5127,-4.5342,-4.5343,-4.5612,-4.5451,0,0,0,0,0,0,0,0,0,0,-4.5242,-4.5171,-4.5051,-4.5054,-4.5128,-4.5342,-4.5343,-4.5444,-4.5461,-4.5511,0,-4.5552,0,-4.5588,-4.5632,-4.5633,0,0,0,-4.5131,-4.5156,-4.522,-4.5054,-4.513,-4.5341,-4.5246,-4.5454,-4.5474,-4.5534,-4.5556,-4.5566,-4.5592,-4.5634,-4.5635,-4.5901,-4.5902,0,0,-4.5119,-4.5086,-4.5206,-4.5232,-4.5197,-4.5239,-4.5253,-4.5466,-4.5488,-4.5557,-4.5572,-4.5596,-4.5636,-4.5638,-4.59,-4.5901,0,0,0,-4.5081,-4.5077,-4.5137,-4.5221,-4.5261,-4.5245,-4.5261,-4.5478,-4.55,-4.5575,-4.56,-4.5637,-4.5641,-4.5899,-4.5901,-4.5917,0,0,0,-4.5074,-4.5056,-4.5131,-4.5113,-4.5257,-4.5372,-4.5268,-4.5485,-4.551,-4.5598,-4.5637,-4.5643,-4.5898,-4.59,-4.5914,-4.5929,0,0,0,-4.5038,-4.5052,-4.5081,-4.5111,-4.5203,-4.5369,-4.5404,-4.5492,-4.5525,-4.5634,-4.5644,-4.5897,-4.59,-4.5911,-4.5925,-4.5988,0,0,0,-4.4991,-4.5092,-4.508,-4.5204,-4.5201,-4.5378,-4.5402,-4.5536,-4.5631,-4.5639,-4.5898,-4.5901,-4.5911,-4.5922,-4.5985,-4.6032,-4.605,0,0,-4.51,-4.5104,-4.518,-4.5175,-4.5345,-4.5347,-4.5521,-4.564,-4.5681,-4.5826,-4.5833,-4.5915,-4.5924,-4.5987,-4.6164,-4.6177,0,0,0,-4.5203,-4.5256,-4.5309,-4.5397,-4.549,-4.5571,-4.5667,-4.5712,-4.5836,-4.5748,-4.5957,-4.5964,-4.6002,-4.6026,-4.6038,-4.6072,-4.5911,-4.5911,-4.5911,-4.5308,-4.5356,-4.5483,-4.5557,-4.5644,-4.5742,-4.5817,-4.5894,-4.5917,-4.5966,-4.6007,-4.6109,-4.6136,-4.6145,-4.618,-4.604,-4.604,-4.604,-4.604,-4.5471,-4.5553,-4.5583,-4.5716,-4.5767,-4.5881,-4.5982,-4.5995,-4.6108,-4.6081,-4.6117,-4.608,-4.6158,-4.6192,-4.6042,-4.6041,-4.6041,-4.6041,-4.6041,-4.5542,-4.559,-4.5643,-4.5777,-4.5875,-4.5949,-4.6057,-4.61,-4.6142,-4.6178,-4.6226,-4.6226,-4.6229,-4.6199,-4.6199,-4.6199,-4.62,-4.62,-4.62,-4.5594,-4.5653,-4.5738,-4.5847,-4.591,-4.6,-4.6103,-4.6167,-4.6249,-4.6272,-4.6273,-4.629,-4.6158,-4.6122,-4.6206,-4.6205,-4.6204,-4.6204,-4.6203,-4.5735,-4.571,-4.5841,-4.5904,-4.6037,-4.6132,-4.6188,-4.6315,-4.6376,-4.6428,-4.644,-4.6336,-4.6343,-4.6334,-4.6304,-4.643,-4.643,-4.643,-4.643,-4.5792,-4.5801,-4.5945,-4.6043,-4.6146,-4.621,-4.6358,-4.644,-4.6522,-4.6563,-4.6552,-4.6518,-4.6507,-4.6521,-4.6508,-4.648,-4.6648,-4.6648,-4.6649,-4.5881,-4.5902,-4.6017,-4.6096,-4.6204,-4.6296,-4.6437,-4.6551,-4.6639,-4.6658,-4.6595,-4.6586,-4.6531,-4.6512,-4.6524,-4.6503,-4.6454,0,0]},{"header":{"parameterUnit":"m.s-1","parameterCategory":1,"la1":30.2992,"la2":30.254,"lo1":-89.0895,"lo2":-89.0443,"dy":0.0025,"dx":0.0025,"nx":19,"ny":19,"refTime":"2026-03-07T09:00:00:Z","depth":0,"parameterNumber":3,"parameterNumberName":"V-component_of_WINDS"},"data":[0,0,0,2.9319,2.9322,2.9496,2.9497,2.9706,2.9707,0,0,0,0,0,0,0,0,0,0,0,2.9258,2.9259,2.9319,2.9323,2.9496,2.9497,2.9705,2.9707,0,0,0,0,0,0,0,0,0,0,0,2.9257,2.9258,2.926,2.9323,2.9496,2.9497,2.9705,2.9579,0,0,0,0,0,0,0,0,0,0,2.9413,2.9346,2.9258,2.926,2.9324,2.9495,2.9497,2.9573,2.9587,2.9621,0,2.9647,0,2.968,2.972,2.9721,0,0,0,2.9331,2.9335,2.939,2.926,2.9326,2.9495,2.942,2.9581,2.9597,2.9639,2.965,2.9658,2.9684,2.9722,2.9723,2.9891,2.9891,0,0,2.9321,2.9284,2.938,2.94,2.937,2.9414,2.9425,2.9591,2.9601,2.9651,2.9663,2.9687,2.9723,2.9724,2.9891,2.9891,0,0,0,2.9288,2.9276,2.9329,2.9391,2.9423,2.9419,2.9432,2.9593,2.9613,2.9666,2.969,2.9724,2.9726,2.989,2.9891,2.9876,0,0,0,2.9283,2.9258,2.9324,2.9303,2.942,2.951,2.943,2.9602,2.9622,2.9689,2.9724,2.9728,2.989,2.9891,2.9876,2.9876,0,0,0,2.925,2.9254,2.9275,2.9301,2.9374,2.9508,2.9538,2.9607,2.9636,2.9721,2.9729,2.9889,2.989,2.9875,2.9875,2.9911,0,0,0,2.9204,2.9258,2.9274,2.9345,2.9372,2.9497,2.9537,2.9632,2.9703,2.9725,2.989,2.9891,2.9875,2.9875,2.991,2.9935,2.9942,0,0,2.9252,2.9263,2.9308,2.9327,2.9439,2.9473,2.9585,2.9686,2.9728,2.9835,2.984,2.9876,2.9875,2.9911,2.9989,2.9994,0,0,0,2.931,2.9342,2.938,2.9446,2.9524,2.9593,2.968,2.9719,2.9812,2.9775,2.9899,2.99,2.9922,2.9936,2.9941,2.9964,2.9895,2.9895,2.9895,2.9324,2.9377,2.9455,2.953,2.9594,2.9685,2.9743,2.9811,2.9843,2.9872,2.9904,2.9945,2.996,2.9963,2.9987,2.9921,2.9921,2.9921,2.9921,2.94,2.9455,2.9501,2.9593,2.965,2.9729,2.9821,2.9843,2.9927,2.9924,2.9947,2.9941,2.9967,2.9991,2.992,2.992,2.992,2.992,2.9921,2.9416,2.9452,2.9498,2.9601,2.9676,2.9751,2.983,2.9878,2.9924,2.9947,2.9988,2.9989,2.9997,2.9963,2.9963,2.9963,2.9963,2.9963,2.9964,2.9415,2.9467,2.9527,2.9618,2.9669,2.9742,2.9838,2.989,2.9961,2.999,2.9991,3.0023,2.9959,2.9943,2.9966,2.9966,2.9965,2.9965,2.9965,2.9475,2.947,2.9562,2.9613,2.9727,2.98,2.9861,2.9965,3.0015,3.0054,3.0083,3.0026,3.0041,3.0038,3.0025,3.0069,3.0069,3.0069,3.0069,2.9489,2.9501,2.9609,2.9689,2.9773,2.9839,2.9946,3.0023,3.0102,3.0137,3.0138,3.0125,3.012,3.0138,3.0133,3.0122,3.0189,3.0189,3.0189,2.953,2.9554,2.9634,2.971,2.9803,2.9883,2.9987,3.0079,3.0167,3.0195,3.0167,3.0162,3.0141,3.0131,3.0157,3.0148,3.0128,0,0]}]]